Santiago de Cuba, Cuba

1:09 PM CDT on March 29, 2017 (GMT -0400)
Antonio Maceo International

Weather History for MUCU - March, 2017

Change the Weather History Date:

Monday, March 20, 2017

  Actual Average Record
Temperature  
Mean Temperature 80 °F -  
Max Temperature 88 °F 82 °F 88 °F (2017)
Min Temperature 71 °F 69 °F 35 °F (2001)
Cooling Degree Days 14    
Growing Degree Days 30 (Base 50)    
Moisture  
Dew Point 60 °F    
Average Humidity 58    
Maximum Humidity 78    
Minimum Humidity 23    
Precipitation  
Precipitation 0.00 in - - ()
Sea Level Pressure  
Sea Level Pressure 30.03 in    
Wind  
Wind Speed 10 mph ()    
Max Wind Speed 15 mph    
Max Gust Speed -    
Visibility 5.9 miles    
Events      
Averages and records for this station are not official NWS values.
T = Trace of Precipitation, MM = Missing Value Source: Averaged Metar Reports

Daily Weather History Graph

Daily Weather History Graph

Search for Another Location

Airport or City:

Trip Planner

Search our weather history database for the weather conditions in past years. The results will help you decide how hot, cold, wet, or windy it might be!

Date:

Astronomy

Mar. 20, 2017 Rise Set
Actual Time 7:07 AM CDT 7:14 PM CDT
Civil Twilight 6:45 AM CDT 7:36 PM CDT
Nautical Twilight 6:19 AM CDT 8:02 PM CDT
Astronomical Twilight 5:54 AM CDT 8:27 PM CDT
Moon 1:18 AM CDT (3/20) 12:43 PM CDT (3/20)
Length of Visible Light 12h 51m
Length of Day
12h 07m
Waning Gibbous, 50% of the Moon is Illuminated
Mar 20
Waning Gibbous
Mar 20
Last Quarter
Mar 27
New
Apr 3
First Quarter
Apr 11
Full

Hourly Weather History & Observations

Time (CDT) Temp. Heat Index Dew Point Humidity Pressure Visibility Wind Dir Wind Speed Gust Speed Precip Events Conditions
12:51 AM 69.8 °F - 60.8 °F 73% 30.06 in 5.6 mi North 13.8 mph - N/A   Scattered Clouds
1:51 AM 69.8 °F - 60.8 °F 73% 30.04 in 5.6 mi North 9.2 mph - N/A   Scattered Clouds
2:00 AM 70 °F - 61 °F 66% 30.06 in 6 mi North 8.9 mph - -   Haze
2:51 AM 69.8 °F - 60.8 °F 73% 30.04 in 5.6 mi North 11.5 mph - N/A   Scattered Clouds
3:51 AM 69.8 °F - 60.8 °F 73% 30.01 in 5.6 mi North 12.7 mph - N/A   Scattered Clouds
4:50 AM 69.8 °F - 62.6 °F 78% 30.01 in 5.6 mi North 11.5 mph - N/A   Scattered Clouds
5:51 AM 69.8 °F - 62.6 °F 78% 30.01 in 5.6 mi North 12.7 mph - N/A   Scattered Clouds
6:50 AM 69.8 °F - 62.6 °F 78% 30.04 in 6.2 mi North 10.4 mph - N/A   Partly Cloudy
7:50 AM 71.6 °F - 62.6 °F 73% 30.04 in 6.2 mi North 12.7 mph - N/A   Partly Cloudy
8:00 AM 71 °F - 63 °F 68% 30.05 in 6 mi North 13.4 mph - -   Partly Cloudy
8:51 AM 75.2 °F - 62.6 °F 65% 30.06 in 6.2 mi North 13.8 mph - N/A   Partly Cloudy
9:51 AM 77.0 °F - 60.8 °F 57% 30.06 in 6.2 mi North 15.0 mph - N/A   Partly Cloudy
10:50 AM 80.6 °F 81.1 °F 59.0 °F 48% 30.06 in 6.2 mi North 13.8 mph - N/A   Scattered Clouds
11:00 AM 80 °F - 60 °F 39% 30.07 in 6 mi North 13.4 mph - -   Partly Cloudy
11:51 AM 84.2 °F 83.8 °F 59.0 °F 42% 30.06 in 6.2 mi North 11.5 mph - N/A   Scattered Clouds
12:50 PM 86.0 °F 84.9 °F 57.2 °F 37% 30.04 in 6.2 mi North 10.4 mph - N/A   Scattered Clouds
1:50 PM 87.8 °F 86.1 °F 55.4 °F 33% 30.01 in 6.2 mi NNW 8.1 mph - N/A   Scattered Clouds
2:00 PM 88 °F - 56 °F 23% 30.02 in 6 mi NNW 8.9 mph - -   Partly Cloudy
2:51 PM 86.0 °F 86.1 °F 60.8 °F 43% 29.98 in 6.2 mi Variable 8.1 mph - N/A   Scattered Clouds
3:51 PM 86.0 °F 85.4 °F 59.0 °F 40% 29.98 in 6.2 mi ENE 11.5 mph - N/A   Scattered Clouds
4:51 PM 82.4 °F 83.4 °F 62.6 °F 51% 29.98 in 6.2 mi South 9.2 mph - N/A   Scattered Clouds
5:00 PM 82 °F - 62 °F 40% 29.99 in 6 mi South 8.9 mph - -   Partly Cloudy
5:50 PM 80.6 °F 82.7 °F 66.2 °F 61% 29.98 in 6.2 mi SSE 9.2 mph - N/A   Scattered Clouds
6:53 PM 73.4 °F - 62.6 °F 69% 30.01 in 5.6 mi NNE 9.2 mph - N/A   Scattered Clouds
7:50 PM 75.2 °F - 59.0 °F 57% - 5.0 mi NNE 9.2 mph - N/A   Scattered Clouds
8:00 PM 75 °F - 60 °F 49% 30.04 in 6 mi NNE 8.9 mph - -   Mostly Cloudy
8:51 PM 73.4 °F - 59.0 °F 61% 30.04 in 5.6 mi NNE 10.4 mph - N/A   Scattered Clouds
9:51 PM 73.4 °F - 59.0 °F 61% 30.06 in 5.6 mi North 8.1 mph - N/A   Scattered Clouds
10:51 PM 71.6 °F - 59.0 °F 64% 30.06 in 5.6 mi North 11.5 mph - N/A   Partly Cloudy
11:00 PM 72 °F - 59 °F 54% 30.08 in 6 mi North 11.2 mph - -   Partly Cloudy
11:50 PM 71.6 °F - 59.0 °F 64% 30.06 in 5.6 mi North 13.8 mph - N/A   Partly Cloudy